RADUGA 1 [-]

Last updated on Nov. 12, 2019, 4:19 a.m. UTC

1 08513U 75123A   19314.98304513 -.00000171  00000-0  00000+0 0  9995
2 08513   8.7762 301.2840 0004326 210.2546 335.8054  1.00256726170771
UTC
Height (km)
Latitude
Longitude
Inclination
Orbital Period
UTC large
Height (km)
Speed (km/s)
/
Latitude / Longitude
Inclination (degrees)
Orbital Period (minutes)
Azimuth
Elevation
Range (km)
Doppler Factor
iOS Compass Heading
iOS Angle

Next 30 passes for location: Hong Kong

Rise time Rise Azimuth (degrees) Set time Set Azimuth (degrees) Duration Max altitude (degrees)

No matching passes for this satellites